W0JFB Weather Reports


time (UTC)temp
C
wind
direction
speed
KPH
gust
KPH
rain 1hr
cm
rain 24hr
cm
rain mn
cm
humidity
%
barometer
mb
20260507051551 15 0 0.0 0.0 0.00 0.00 0.00 85 1016.7
20260507050047 15 0 0.0 1.6 0.00 0.00 0.00 85 1016.7
20260507044554 15 0 0.0 1.6 0.00 0.00 0.00 84 1016.6
20260507043048 15 0 0.0 0.0 0.00 0.00 0.00 83 1016.5
20260507041551 15 0 0.0 1.6 0.00 0.00 0.00 82 1016.4
20260507040051 15 0 0.0 1.6 0.00 0.00 0.00 81 1016.2
20260507034549 16 0 0.0 1.6 0.00 0.00 0.00 80 1016.1
20260507033048 16 0 0.0 1.6 0.00 0.00 0.00 79 1016.0
20260507031546 16 0 0.0 1.6 0.00 0.00 0.00 78 1015.9
20260507030051 17 0 0.0 1.6 0.00 0.00 0.00 76 1015.8
20260507024548 17 277 0.0 4.8 0.00 0.00 0.00 74 1015.7
20260507023052 18 261 0.0 3.2 0.00 0.00 0.00 72 1015.7
20260507021550 18 0 0.0 3.2 0.00 0.00 0.00 69 1015.7
20260507020051 20 0 0.0 1.6 0.00 0.00 0.00 65 1015.7
20260507014553 20 250 0.0 3.2 0.00 0.00 0.00 62 1015.9
20260507013106 21 0 0.0 4.8 0.00 0.00 0.00 58 1015.8
20260507011550 20 286 0.0 4.8 0.00 0.00 0.00 59 1015.8
20260507010101 20 83 0.0 8.0 0.00 0.00 0.00 60 1015.8
20260507004551 20 215 1.6 6.4 0.00 0.00 0.00 59 1016.0
20260507003049 20 324 3.2 8.0 0.00 0.00 0.00 59 1016.1
20260507001550 21 322 1.6 9.7 0.00 0.00 0.00 60 1016.0
20260507000045 21 333 3.2 8.0 0.00 0.00 0.00 59 1015.9
20260506234554 21 206 3.2 11.3 0.00 0.00 0.00 57 1015.9
20260506233103 21 290 1.6 8.0 0.00 0.00 0.00 56 1016.0
20260506231550 21 218 1.6 6.4 0.00 0.00 0.00 56 1016.2
20260506224549 22 201 1.6 8.0 0.00 0.00 0.00 55 1016.7
20260506223051 22 0 1.6 6.4 0.00 0.00 0.00 55 1017.1
20260506221556 22 221 1.6 8.0 0.00 0.00 0.00 57 1017.3
20260506220049 21 284 1.6 6.4 0.00 0.00 0.00 58 1017.4
20260506214546 21 249 1.6 6.4 0.00 0.00 0.00 62 1017.5
20260506213042 20 324 1.6 9.7 0.00 0.00 0.00 63 1017.7
20260506211559 20 263 1.6 8.0 0.00 0.00 0.00 62 1018.0
20260506210048 21 262 1.6 6.4 0.00 0.00 0.00 62 1017.9
20260506204546 21 295 0.0 6.4 0.00 0.00 0.00 61 1017.9
20260506203045 20 283 0.0 4.8 0.00 0.00 0.00 62 1018.0
20260506201543 20 255 1.6 6.4 0.00 0.00 0.00 63 1018.0
20260506200048 20 0 1.6 9.7 0.00 0.00 0.00 61 1018.1
20260506194553 20 313 0.0 4.8 0.00 0.00 0.00 61 1018.2
20260506193046 20 232 0.0 6.4 0.00 0.00 0.00 61 1018.3
20260506191557 20 262 1.6 6.4 0.00 0.00 0.00 62 1018.3
20260506190046 20 285 1.6 9.7 0.00 0.00 0.00 63 1018.4
20260506184548 19 260 1.6 6.4 0.00 0.00 0.00 65 1018.5
20260506183050 18 258 0.0 4.8 0.00 0.00 0.00 67 1018.6
20260506181549 18 252 0.0 3.2 0.00 0.00 0.00 65 1018.7
20260506180052 18 0 1.6 4.8 0.00 0.00 0.00 70 1018.6
20260506174548 17 0 0.0 4.8 0.00 0.00 0.00 70 1018.7
20260506173056 17 0 0.0 4.8 0.00 0.00 0.00 73 1018.7
20260506171557 17 0 1.6 6.4 0.00 0.00 0.00 74 1018.7
20260506170058 17 0 0.0 4.8 0.00 0.00 0.00 74 1018.7
20260506164606 16 263 1.6 4.8 0.00 0.00 0.00 73 1018.5
20260506163057 16 259 0.0 3.2 0.00 0.00 0.00 73 1018.6
20260506161546 16 0 1.6 4.8 0.00 0.00 0.00 75 1018.5
20260506160106 15 218 0.0 3.2 0.00 0.00 0.00 75 1018.5
20260506154553 15 253 0.0 3.2 0.00 0.00 0.00 80 1018.5
20260506153049 15 0 0.0 1.6 0.00 0.00 0.00 81 1018.6
20260506151553 14 0 0.0 1.6 0.00 0.00 0.00 84 1018.6
20260506150047 13 0 0.0 1.6 0.00 0.00 0.00 85 1018.5
20260506144552 13 0 0.0 1.6 0.00 0.00 0.00 88 1018.5
20260506143052 12 0 0.0 1.6 0.00 0.00 0.00 88 1018.4
20260506141606 11 0 0.0 1.6 0.00 0.00 0.00 88 1018.3
20260506140048 10 0 0.0 1.6 0.00 0.00 0.00 90 1018.2
20260506134546 9 0 0.0 1.6 0.00 0.00 0.00 91 1018.0
20260506133103 9 0 0.0 1.6 0.00 0.00 0.00 90 1017.9
20260506131544 9 0 0.0 1.6 0.00 0.00 0.00 90 1017.7
20260506130048 9 0 0.0 1.6 0.00 0.00 0.00 90 1017.6
20260506124548 9 0 0.0 1.6 0.00 0.00 0.00 90 1017.6
20260506123049 10 0 0.0 1.6 0.00 0.00 0.00 89 1017.6
20260506121555 10 0 0.0 1.6 0.00 0.00 0.00 89 1017.5
20260506120116 10 0 0.0 1.6 0.00 0.00 0.00 89 1017.6
20260506114550 10 0 0.0 1.6 0.00 0.00 0.00 89 1017.4
20260506113048 10 0 0.0 1.6 0.00 0.00 0.00 89 1017.4
20260506111549 10 0 0.0 1.6 0.00 0.00 0.00 88 1017.3
20260506110048 10 0 0.0 1.6 0.00 0.00 0.00 88 1017.3
20260506104548 10 0 0.0 1.6 0.00 0.00 0.00 88 1017.2
20260506103053 10 0 0.0 1.6 0.00 0.00 0.00 88 1017.2
20260506101549 10 0 0.0 1.6 0.00 0.00 0.00 88 1017.1
20260506100046 11 0 0.0 1.6 0.00 0.00 0.00 87 1017.2
20260506094551 11 0 0.0 1.6 0.00 0.00 0.00 87 1017.2
20260506093052 11 247 0.0 1.6 0.00 0.00 0.00 86 1017.1
20260506091551 11 0 0.0 1.6 0.00 0.00 0.00 86 1017.1
20260506090048 11 0 0.0 1.6 0.00 0.00 0.00 86 1017.1
20260506084548 11 0 0.0 1.6 0.00 0.00 0.00 85 1017.5
20260506083049 11 0 0.0 1.6 0.00 0.00 0.00 85 1017.5
20260506081552 12 0 0.0 1.6 0.00 0.00 0.00 84 1017.5
20260506073048 12 0 0.0 3.2 0.00 0.00 0.00 82 1017.3
20260506071551 13 0 0.0 1.6 0.00 0.00 0.00 82 1017.3
20260506070105 13 0 0.0 3.2 0.00 0.00 0.00 82 1017.1
20260506061543 14 0 0.0 3.2 0.00 0.00 0.00 81 1016.6